User: anonymous   Login
Location: Brno
(49.2000°N, 16.6330°E)
Time: 13:37:12
(UTC+01:00)
Language:

CARTOSAT-1 - Orbit

View from above orbital plane
View from above orbital plane
View from above satellite
View from above satellite

Ground track
Ground track

The orbit data is extracted from the following two-line orbital elements,

1 28649U 05017A   17055.03933687  .00000145  00000-0  24054-4 0  9998
2 28649  97.8714 131.1633 0003491  64.2445 295.9131 14.83450712639202
Epoch (UTC): 24 February 2017 00:56:38
Eccentricity: 0.0003491
inclination: 97.8714°
perigee height: 616 km
apogee height: 621 km
right ascension of ascending node: 131.1633°
argument of perigee: 64.2445°
revolutions per day: 14.83450712
mean anomaly at epoch: 295.9131°
orbit number at epoch: 63920

The dashed part of the orbit path shows where the satellite is in the earth's shadow,  

DLR